Location: Monfort
(47.1967°N, 0.2115°W)
Time: 11:31:19
(UTC+00:00)

Cosmos 1818 - Pass Details

Date: 24 October 2020
Orbit: 775 x 798 km, 65.0° (Epoch: 27 November)

Event Time Altitude Azimuth Distance (km) Brightness Sun altitude
Rises 17:45:57 0° 233° (SW) 3,270 8.0 -9.0°
Reaches altitude 10° 17:48:25 10° 239° (WSW) 2,349 7.2 -9.4°
Maximum altitude 17:53:40 50° 314° (NW) 1,011 4.4 -10.3°
Drops below altitude 10° 17:58:58 10° 30° (NNE) 2,375 5.7 -11.2°
Enters shadow 18:01:01 - 35° (NE) 3,129 6.3 -11.6°
